Location: Unspecified
(22.6800°N, 112.2000°E)
Time: 07:04:09
(UTC+08:00)

X-37B - Pass Details

Date: 22 June 2021
Orbit: 383 x 392 km, 45.0° (Epoch: 01 July)

Event Time Altitude Azimuth Distance (km) Brightness Sun altitude
Rises 05:11:50 0° 314° (NW) 2,255 4.3 -8.1°
Reaches altitude 10° 05:13:54 10° 316° (NW) 1,402 3.3 -7.7°
Maximum altitude 05:17:03 75° 41° (NE) 400 0.8 -7.0°
Drops below altitude 10° 05:20:13 10° 128° (SE) 1,403 3.7 -6.4°
Sets 05:22:17 0° 130° (SE) 2,256 4.8 -6.0°
